TimeCDT,TemperatureF,Dew PointF,Humidity,Sea Level PressureIn,VisibilityMPH,Wind Direction,Wind SpeedMPH,Gust SpeedMPH,PrecipitationIn,Events,Conditions,WindDirDegrees,DateUTC
12:53 AM,44.1,36.0,73,30.26,10.0,Calm,Calm,-,N/A,,Clear,0,2012-10-11 05:53:00
1:53 AM,44.1,35.1,71,30.26,10.0,Calm,Calm,-,N/A,,Clear,0,2012-10-11 06:53:00
2:53 AM,42.1,36.0,79,30.25,10.0,Calm,Calm,-,N/A,,Clear,0,2012-10-11 07:53:00
3:53 AM,39.9,36.0,86,30.27,10.0,Calm,Calm,-,N/A,,Clear,0,2012-10-11 08:53:00
4:53 AM,39.0,36.0,89,30.28,10.0,Calm,Calm,-,N/A,,Clear,0,2012-10-11 09:53:00
5:53 AM,39.9,36.0,86,30.27,10.0,Calm,Calm,-,N/A,,Clear,0,2012-10-11 10:53:00
6:53 AM,39.0,36.0,89,30.29,10.0,Calm,Calm,-,N/A,Fog,Patches of Fog,0,2012-10-11 11:53:00
7:53 AM,45.0,37.9,76,30.29,10.0,Calm,Calm,-,N/A,,Clear,0,2012-10-11 12:53:00
8:53 AM,48.0,39.9,74,30.30,10.0,SE,3.5,-,N/A,,Clear,130,2012-10-11 13:53:00
9:53 AM,53.1,39.9,61,30.30,10.0,SSE,4.6,-,N/A,,Partly Cloudy,150,2012-10-11 14:53:00
10:53 AM,59.0,39.0,48,30.29,10.0,SSE,4.6,-,N/A,,Scattered Clouds,160,2012-10-11 15:53:00
11:53 AM,63.0,37.0,38,30.28,10.0,WSW,3.5,-,N/A,,Scattered Clouds,240,2012-10-11 16:53:00
12:53 PM,66.0,37.9,36,30.26,10.0,Calm,Calm,-,N/A,,Mostly Cloudy,0,2012-10-11 17:53:00
1:53 PM,66.0,37.0,34,30.25,10.0,West,8.1,-,N/A,,Mostly Cloudy,260,2012-10-11 18:53:00
2:53 PM,66.9,39.9,37,30.24,10.0,SW,5.8,-,N/A,,Overcast,230,2012-10-11 19:53:00
3:53 PM,66.0,39.0,37,30.23,10.0,SSW,5.8,-,N/A,,Overcast,210,2012-10-11 20:53:00
4:53 PM,64.0,41.0,43,30.23,10.0,WSW,4.6,-,N/A,,Mostly Cloudy,250,2012-10-11 21:53:00
5:53 PM,63.0,42.1,46,30.23,10.0,Calm,Calm,-,N/A,,Mostly Cloudy,0,2012-10-11 22:53:00
6:53 PM,62.1,45.0,53,30.23,10.0,Calm,Calm,-,N/A,,Overcast,0,2012-10-11 23:53:00
7:53 PM,61.0,46.0,58,30.24,10.0,Calm,Calm,-,N/A,,Overcast,0,2012-10-12 00:53:00
8:53 PM,61.0,46.9,60,30.23,10.0,SW,4.6,-,N/A,,Overcast,220,2012-10-12 01:53:00
9:53 PM,60.1,46.0,60,30.24,10.0,Calm,Calm,-,N/A,,Overcast,0,2012-10-12 02:53:00
10:53 PM,61.0,46.0,58,30.23,10.0,Calm,Calm,-,N/A,,Overcast,0,2012-10-12 03:53:00
11:20 PM,59.0,48.2,67,30.23,10.0,Calm,Calm,-,N/A,,Overcast,0,2012-10-12 04:20:00
11:53 PM,59.0,48.0,67,30.22,10.0,South,3.5,-,N/A,,Overcast,180,2012-10-12 04:53:00